Location: Torch Lake Township
(45.0753°N, 85.3586°W)
Time: 17:11:36
(UTC-04:00)

Amateur Radio Satellites - All Passes

Search period start: 20 October 2014 16:41
Search period end: 21 October 2014 16:41
Location: Torch Lake Township, 45.0753°N, 85.3586°W

Satellite Date Start Highest point End Downlink Frequencies (MHz)
Time Altitude Azimuth
Sapphire 20 Oct 16:46:11 16:48:54 14° 257° (WSW) 16:51:36 437.095 MHz 1200 baud AX-25 AFSK
SO-50 20 Oct 17:25:42 17:28:32 16° 329° (NNW) 17:31:24 436.795 FM
KITSAT 1 20 Oct 17:26:08 17:32:01 21° 338° (NNW) 17:37:54 435.175 FM
UOSAT-12 20 Oct 17:32:26 17:37:03 65° 309° (NW) 17:41:46 437.025 FM, 437.400 FM
AO-7 20 Oct 17:32:41 17:40:48 58° 257° (WSW) 17:48:58 29.400 - 29.500 MHz
Hamsat 20 Oct 17:41:45 17:45:01 22° 66° (ENE) 17:48:16 145.90 MHz
Saudisat 1A 20 Oct 17:55:38 17:59:59 53° 50° (NE) 18:04:18 436.775 MHz
OPAL 20 Oct 17:56:17 17:59:37 18° 93° (E) 18:02:55 ?
ISS 20 Oct 18:03:44 18:06:41 28° 351° (N) 18:09:38 145.800 FM
Uosat F 20 Oct 18:12:11 18:16:26 27° 265° (W) 18:20:42 435.120 FM
JAS-2 20 Oct 18:13:08 18:18:52 74° 72° (ENE) 18:25:26 435.800 - 435.900 CW/SSB, 435.910 FM
SO-67 20 Oct 19:04:54 19:07:25 19° 68° (ENE) 19:09:56 435.3500 MHz FM
UOSAT-12 20 Oct 19:15:24 19:18:08 15° 330° (NNW) 19:20:54 437.025 FM, 437.400 FM
Hamsat 20 Oct 19:16:52 19:20:46 36° 263° (W) 19:24:41 145.90 MHz
KITSAT 1 20 Oct 19:26:07 19:31:03 17° 8° (N) 19:35:58 435.175 FM
STRAND 1 20 Oct 19:32:38 19:36:20 20° 91° (E) 19:39:59 ?
OPAL 20 Oct 19:33:59 19:38:55 60° 291° (WNW) 19:43:46 ?
AO-7 20 Oct 19:34:39 19:35:22 10° 277° (W) 19:36:05 29.400 - 29.500 MHz
Saudisat 1A 20 Oct 19:35:59 19:39:12 20° 248° (WSW) 19:42:24 436.775 MHz
HO-68 20 Oct 19:39:26 19:43:28 16° 48° (NE) 19:47:31 435.675 MHz FM
ISS 20 Oct 19:41:01 19:44:02 30° 11° (NNE) 19:47:02 145.800 FM
JAS-2 20 Oct 20:00:56 20:04:51 18° 274° (W) 20:09:04 435.800 - 435.900 CW/SSB, 435.910 FM
SO-67 20 Oct 20:37:17 20:40:15 27° 264° (W) 20:43:14 435.3500 MHz FM
STRAND 1 20 Oct 21:10:49 21:15:53 58° 289° (WNW) 21:20:55 ?
Oscar 11 20 Oct 21:16:50 21:19:21 15° 62° (ENE) 21:21:51 145.825 FM, Beacon 2401.500 USB
ISS 20 Oct 21:17:40 21:21:01 86° 211° (SSW) 21:24:22 145.800 FM
KITSAT 1 20 Oct 21:22:15 21:29:25 33° 37° (NE) 21:36:32 435.175 FM
HO-68 20 Oct 21:22:51 21:29:56 69° 69° (ENE) 21:37:04 435.675 MHz FM
AO-40 20 Oct 21:50:36 23:57:43 26° 211° (SSW) 03:52:23 Beacon 2401.320
ZACube-1 20 Oct 21:52:32 21:55:28 17° 62° (ENE) 21:58:24 437.345 MHz
RS-15 20 Oct 21:57:00 22:02:30 15° 96° (E) 22:07:57 29.354 - 29.394 USB, Beacon 29.352 USB
UKube-1 20 Oct 22:05:02 22:09:16 52° 71° (ENE) 22:13:31 145.840 MHz, 145.915 MHz
SO-50 20 Oct 22:32:08 22:36:22 30° 42° (NE) 22:40:39 436.795 FM
FUNcube-1 20 Oct 22:36:42 22:41:03 43° 71° (ENE) 22:45:22 145.950 - 145.970 MHz USB
Oscar 11 20 Oct 22:50:46 22:55:03 61° 259° (W) 22:59:22 145.825 FM, Beacon 2401.500 USB
ISS 20 Oct 22:55:36 22:57:16 13° 228° (SW) 22:58:56 145.800 FM
HO-68 20 Oct 23:12:33 23:18:12 25° 268° (W) 23:23:55 435.675 MHz FM
KITSAT 1 20 Oct 23:17:32 23:25:38 79° 240° (WSW) 23:33:40 435.175 FM
ZACube-1 20 Oct 23:26:52 23:31:25 60° 259° (W) 23:35:57 437.345 MHz
UKube-1 20 Oct 23:43:04 23:45:46 16° 269° (W) 23:48:29 145.840 MHz, 145.915 MHz
RS-15 21 Oct 00:01:44 00:12:35 69° 118° (ESE) 00:23:23 29.354 - 29.394 USB, Beacon 29.352 USB
SO-50 21 Oct 00:12:29 00:17:08 47° 241° (WSW) 00:21:48 436.795 FM
FUNcube-1 21 Oct 00:14:03 00:17:35 22° 267° (W) 00:21:07 145.950 - 145.970 MHz USB
UOSAT-12 21 Oct 00:20:28 00:24:43 31° 43° (NE) 00:28:53 437.025 FM, 437.400 FM
KITSAT 1 21 Oct 01:15:03 01:19:44 17° 260° (W) 01:24:25 435.175 FM
MaSat-1 21 Oct 01:44:31 01:48:44 63° 115° (ESE) 01:52:34 437.345 MHz
UOSAT-12 21 Oct 02:00:32 02:04:59 42° 242° (WSW) 02:09:21 437.025 FM, 437.400 FM
RS-15 21 Oct 02:15:18 02:25:37 45° 324° (NW) 02:36:03 29.354 - 29.394 USB, Beacon 29.352 USB
JAS-1B 21 Oct 02:27:07 02:32:27 26° 95° (E) 02:38:29 435.800 - 435.900 CW/SSB
Oscar 16 21 Oct 02:27:28 02:31:42 25° 94° (E) 02:35:54 437.025 USB, Beacon 2401.1428
Uribyol 2 21 Oct 02:40:13 02:43:02 15° 89° (E) 02:45:49 436.500 FM
ITAMSAT 1 21 Oct 02:44:58 02:47:57 15° 89° (E) 02:50:55 435.822 SSB
AO-Echo 21 Oct 02:57:28 03:01:55 27° 94° (E) 03:06:21 ?
Oscar 19 21 Oct 03:21:07 03:26:16 76° 103° (ESE) 03:31:22 437.125 CW, 437.150 USB
MaSat-1 21 Oct 03:22:18 03:24:47 16° 311° (NW) 03:27:08 437.345 MHz
AO-27 21 Oct 03:28:03 03:32:55 38° 97° (E) 03:37:44 436.795 MHz FM
Oscar 16 21 Oct 04:06:23 04:11:14 43° 291° (WNW) 04:16:02 437.025 USB, Beacon 2401.1428
JAS-1B 21 Oct 04:17:12 04:23:22 60° 290° (WNW) 04:30:39 435.800 - 435.900 CW/SSB
Gurwin Techsat 1B 21 Oct 04:17:16 04:22:30 55° 100° (E) 04:27:42 435.225 FM
Uribyol 2 21 Oct 04:17:52 04:23:06 77° 287° (WNW) 04:28:17 436.500 FM
ITAMSAT 1 21 Oct 04:22:46 04:28:01 74° 287° (WNW) 04:33:13 435.822 SSB
PCSat 21 Oct 04:27:37 04:30:06 13° 103° (ESE) 04:32:36 145.825 MHz
TMSAT-1 21 Oct 04:31:20 04:36:34 55° 100° (E) 04:41:46 436.925 FM
RS-15 21 Oct 04:32:48 04:41:42 27° 357° (N) 04:50:45 29.354 - 29.394 USB, Beacon 29.352 USB
AO-Echo 21 Oct 04:35:49 04:40:49 45° 291° (WNW) 04:45:50 ?
Oscar 19 21 Oct 05:01:53 05:05:00 17° 301° (WNW) 05:08:06 437.125 CW, 437.150 USB
AO-27 21 Oct 05:07:45 05:12:19 31° 295° (WNW) 05:16:52 436.795 MHz FM
OPAL 21 Oct 05:12:22 05:17:13 42° 66° (ENE) 05:22:01 ?
JAS-2 21 Oct 05:22:20 05:25:09 12° 82° (E) 05:27:59 435.800 - 435.900 CW/SSB, 435.910 FM
AO-7 21 Oct 05:31:46 05:39:38 44° 99° (E) 05:47:28 29.400 - 29.500 MHz
Sapphire 21 Oct 05:44:26 05:49:41 55° 116° (ESE) 05:54:59 437.095 MHz 1200 baud AX-25 AFSK
Gurwin Techsat 1B 21 Oct 05:58:01 06:02:05 23° 298° (WNW) 06:06:09 435.225 FM
Uribyol 2 21 Oct 05:59:39 06:01:42 12° 305° (NW) 06:03:45 436.500 FM
ITAMSAT 1 21 Oct 06:04:43 06:06:36 12° 306° (NW) 06:08:29 435.822 SSB
PCSat 21 Oct 06:07:16 06:12:42 88° 121° (ESE) 06:18:10 145.825 MHz
JAS-1B 21 Oct 06:11:14 06:13:00 11° 308° (NW) 06:14:51 435.800 - 435.900 CW/SSB
TMSAT-1 21 Oct 06:12:03 06:16:07 23° 298° (WNW) 06:20:09 436.925 FM
Uosat F 21 Oct 06:16:46 06:21:51 79° 104° (ESE) 06:26:54 435.120 FM
RS-15 21 Oct 06:47:54 06:58:06 40° 32° (NNE) 07:08:36 29.354 - 29.394 USB, Beacon 29.352 USB
STRAND 1 21 Oct 06:50:14 06:54:50 35° 66° (ENE) 06:59:28 ?
OPAL 21 Oct 06:51:52 06:56:13 27° 263° (W) 07:00:33 ?
Hamsat 21 Oct 07:00:16 07:04:03 32° 96° (E) 07:07:49 145.90 MHz
JAS-2 21 Oct 07:03:53 07:11:29 63° 100° (E) 07:19:15 435.800 - 435.900 CW/SSB, 435.910 FM
AO-7 21 Oct 07:24:38 07:32:28 48° 299° (WNW) 07:40:18 29.400 - 29.500 MHz
Sapphire 21 Oct 07:28:46 07:33:25 28° 316° (NW) 07:38:06 437.095 MHz 1200 baud AX-25 AFSK
PCSat 21 Oct 07:52:54 07:56:52 20° 322° (NW) 08:00:50 145.825 MHz
Uosat F 21 Oct 07:57:04 08:00:00 16° 302° (WNW) 08:02:56 435.120 FM
SO-67 21 Oct 07:58:51 08:01:11 17° 93° (E) 08:03:29 435.3500 MHz FM
STRAND 1 21 Oct 08:29:27 08:34:01 32° 264° (W) 08:38:38 ?
Hamsat 21 Oct 08:36:29 08:39:52 24° 293° (WNW) 08:43:16 145.90 MHz
JAS-2 21 Oct 08:49:30 08:56:04 34° 298° (WNW) 09:02:51 435.800 - 435.900 CW/SSB, 435.910 FM
RS-15 21 Oct 09:00:34 09:11:44 83° 238° (WSW) 09:23:22 29.354 - 29.394 USB, Beacon 29.352 USB
AO-7 21 Oct 09:19:54 09:23:15 13° 322° (NW) 09:26:37 29.400 - 29.500 MHz
SO-67 21 Oct 09:31:10 09:34:14 30° 289° (WNW) 09:37:17 435.3500 MHz FM
Saudisat 1A 21 Oct 09:42:52 09:47:12 65° 122° (ESE) 09:51:35 436.775 MHz
MaSat-1 21 Oct 09:55:17 09:56:34 12° 47° (NE) 09:57:48 437.345 MHz
HO-68 21 Oct 10:35:50 10:42:57 59° 102° (ESE) 10:50:01 435.675 MHz FM
Oscar 11 21 Oct 10:37:02 10:40:18 21° 93° (E) 10:43:33 145.825 FM, Beacon 2401.500 USB
RS-15 21 Oct 11:14:39 11:22:26 22° 260° (W) 11:30:27 29.354 - 29.394 USB, Beacon 29.352 USB
ZACube-1 21 Oct 11:14:55 11:18:19 22° 93° (E) 11:21:38 437.345 MHz
Saudisat 1A 21 Oct 11:23:49 11:27:11 21° 322° (NW) 11:30:35 436.775 MHz
UKube-1 21 Oct 11:27:07 11:31:31 75° 103° (ESE) 11:35:53 145.840 MHz, 145.915 MHz
MaSat-1 21 Oct 11:30:06 11:32:28 27° 250° (WSW) 11:34:40 437.345 MHz
FUNcube-1 21 Oct 12:00:02 12:04:21 67° 101° (ESE) 12:08:32 145.950 - 145.970 MHz USB
KITSAT 1 21 Oct 12:00:35 12:01:37 10° 96° (E) 12:02:40 435.175 FM
Oscar 11 21 Oct 12:12:37 12:16:38 39° 290° (WNW) 12:20:37 145.825 FM, Beacon 2401.500 USB
HO-68 21 Oct 12:24:08 12:30:16 32° 302° (WNW) 12:36:24 435.675 MHz FM
Sapphire 21 Oct 12:47:57 12:51:19 16° 34° (NE) 12:54:39 437.095 MHz 1200 baud AX-25 AFSK
ZACube-1 21 Oct 12:50:52 12:54:50 35° 291° (WNW) 12:58:41 437.345 MHz
Oscar 19 21 Oct 13:02:43 13:06:20 20° 61° (ENE) 13:09:57 437.125 CW, 437.150 USB
UKube-1 21 Oct 13:05:04 13:07:07 13° 301° (WNW) 13:09:11 145.840 MHz, 145.915 MHz
PCSat 21 Oct 13:10:34 13:14:48 22° 40° (NE) 13:19:01 145.825 MHz
AO-27 21 Oct 13:13:13 13:14:41 11° 54° (NE) 13:16:08 436.795 MHz FM
JAS-1B 21 Oct 13:16:47 13:21:22 24° 61° (ENE) 13:25:47 435.800 - 435.900 CW/SSB
FUNcube-1 21 Oct 13:38:01 13:40:10 14° 300° (WNW) 13:42:17 145.950 - 145.970 MHz USB
Oscar 16 21 Oct 13:46:10 13:51:05 46° 69° (ENE) 13:56:00 437.025 USB, Beacon 2401.1428
KITSAT 1 21 Oct 13:47:26 13:55:16 58° 115° (ESE) 14:03:09 435.175 FM
Uribyol 2 21 Oct 13:59:25 14:03:49 28° 64° (ENE) 14:08:13 436.500 FM
Gurwin Techsat 1B 21 Oct 14:03:12 14:06:25 17° 58° (ENE) 14:09:39 435.225 FM
ITAMSAT 1 21 Oct 14:04:23 14:08:49 29° 64° (ENE) 14:13:17 435.822 SSB
AO-Echo 21 Oct 14:12:24 14:16:54 39° 68° (ENE) 14:21:34 ?
TMSAT-1 21 Oct 14:17:01 14:20:11 16° 58° (ENE) 14:23:22 436.925 FM
SO-50 21 Oct 14:29:19 14:33:24 35° 116° (ESE) 14:37:36 436.795 FM
Sapphire 21 Oct 14:30:21 14:35:47 68° 56° (NE) 14:41:11 437.095 MHz 1200 baud AX-25 AFSK
Oscar 19 21 Oct 14:40:06 14:45:12 63° 258° (WSW) 14:50:20 437.125 CW, 437.150 USB
AO-7 21 Oct 14:44:16 14:49:30 19° 45° (NE) 14:54:45 29.400 - 29.500 MHz
AO-27 21 Oct 14:48:04 14:53:14 70° 73° (ENE) 14:58:27 436.795 MHz FM
PCSat 21 Oct 14:53:23 14:58:50 77° 241° (WSW) 15:04:13 145.825 MHz
JAS-1B 21 Oct 15:05:50 15:11:47 53° 259° (W) 15:17:21 435.800 - 435.900 CW/SSB
Oscar 16 21 Oct 15:26:27 15:30:38 25° 267° (W) 15:34:50 437.025 USB, Beacon 2401.1428
ISS 21 Oct 15:37:18 15:40:36 68° 147° (SSE) 15:43:56 145.800 FM
Uribyol 2 21 Oct 15:38:10 15:43:06 42° 262° (W) 15:48:04 436.500 FM
Gurwin Techsat 1B 21 Oct 15:40:25 15:45:44 80° 256° (WSW) 15:51:05 435.225 FM
Oscar 10/S400 21 Oct 15:40:26 15:57:14 38° 155° (SSE) 16:25:45 145.825 - 145.975 CW/USB, Beacon 145.810 USB
ITAMSAT 1 21 Oct 15:43:17 15:48:09 40° 262° (W) 15:53:05 435.822 SSB
KITSAT 1 21 Oct 15:43:26 15:50:59 42° 317° (NW) 15:58:35 435.175 FM
AO-Echo 21 Oct 15:51:44 15:55:48 26° 266° (W) 16:00:00 ?
TMSAT-1 21 Oct 15:54:08 15:59:26 81° 256° (WSW) 16:04:47 436.925 FM
Uosat F 21 Oct 15:55:15 15:58:45 19° 60° (ENE) 16:02:16 435.120 FM
SO-50 21 Oct 16:09:49 16:13:57 34° 316° (NW) 16:18:13 436.795 FM
UOSAT-12 21 Oct 16:13:18 16:17:33 36° 117° (ESE) 16:21:52 437.025 FM, 437.400 FM
Sapphire 21 Oct 16:14:53 16:18:39 19° 254° (WSW) 16:22:24 437.095 MHz 1200 baud AX-25 AFSK
Saudisat 1A 21 Oct 16:28:59 16:31:59 17° 35° (NE) 16:34:58 436.775 MHz
AO-27 21 Oct 16:30:04 16:33:16 16° 270° (W) 16:36:29 436.795 MHz FM
